Location: Lake Runnemede Observatory
(43.4843°N, 72.3851°W)
Time: 17:19:49
(UTC-04:00)

Amateur Radio Satellites - All Passes

Search period start: 02 September 2014 16:49
Search period end: 03 September 2014 16:49
Location: Lake Runnemede Observatory, 43.4843°N, 72.3851°W

Satellite Date Start Highest point End Downlink Frequencies (MHz)
Time Altitude Azimuth
Sapphire 02 Sep 16:49:58 16:55:23 86° 300° (WNW) 17:00:50 437.095 MHz 1200 baud AX-25 AFSK
Hamsat 02 Sep 17:16:27 17:20:20 33° 70° (ENE) 17:24:16 145.90 MHz
PCSat 02 Sep 17:19:25 17:24:39 49° 307° (NW) 17:29:56 145.825 MHz
OPAL 02 Sep 18:03:42 18:08:50 58° 291° (WNW) 18:13:55 ?
STRAND 1 02 Sep 18:16:20 18:17:46 11° 88° (E) 18:19:13 ?
JAS-2 02 Sep 18:25:38 18:31:31 56° 259° (W) 18:36:52 435.800 - 435.900 CW/SSB, 435.910 FM
AO-7 02 Sep 18:30:29 18:34:00 13° 274° (W) 18:37:33 29.400 - 29.500 MHz
Sapphire 02 Sep 18:36:01 18:39:37 18° 321° (NW) 18:43:15 437.095 MHz 1200 baud AX-25 AFSK
RS-15 02 Sep 18:38:57 18:47:23 26° 258° (WSW) 18:56:04 29.354 - 29.394 USB, Beacon 29.352 USB
HO-68 02 Sep 18:48:13 18:51:27 14° 48° (NE) 18:54:42 435.675 MHz FM
Hamsat 02 Sep 18:52:53 18:56:21 23° 266° (W) 18:59:52 145.90 MHz
PCSat 02 Sep 19:07:32 19:09:27 12° 329° (NNW) 19:11:22 145.825 MHz
SO-67 02 Sep 19:10:42 19:14:10 88° 258° (WSW) 19:17:40 435.3500 MHz FM
STRAND 1 02 Sep 19:52:30 19:57:39 89° 285° (WNW) 20:02:46 ?
HO-68 02 Sep 20:30:47 20:37:47 63° 68° (ENE) 20:44:50 435.675 MHz FM
UKube-1 02 Sep 20:52:57 20:57:00 40° 70° (ENE) 21:01:04 145.840 MHz, 145.915 MHz
Oscar 11 02 Sep 20:56:06 20:59:46 27° 68° (ENE) 21:03:27 145.825 FM, Beacon 2401.500 USB
MaSat-1 02 Sep 21:13:16 21:17:13 27° 51° (NE) 21:20:44 437.345 MHz
Saudisat 1A 02 Sep 21:19:05 21:22:42 25° 114° (ESE) 21:26:20 436.775 MHz
FUNcube-1 02 Sep 21:30:54 21:34:20 25° 67° (ENE) 21:37:51 145.950 - 145.970 MHz USB
STRAND 1 02 Sep 21:33:52 21:36:04 13° 303° (WNW) 21:38:17 ?
KITSAT 1 02 Sep 21:50:52 21:57:06 25° 104° (ESE) 22:03:20 435.175 FM
HO-68 02 Sep 22:20:11 22:25:57 26° 267° (W) 22:31:46 435.675 MHz FM
UKube-1 02 Sep 22:30:12 22:33:21 20° 266° (W) 22:36:32 145.840 MHz, 145.915 MHz
Oscar 11 02 Sep 22:32:05 22:35:52 29° 264° (W) 22:39:41 145.825 FM, Beacon 2401.500 USB
MaSat-1 02 Sep 22:50:16 22:54:14 32° 253° (WSW) 22:57:42 437.345 MHz
Saudisat 1A 02 Sep 22:57:57 23:02:06 39° 312° (NW) 23:06:16 436.775 MHz
FUNcube-1 02 Sep 23:06:54 23:10:37 30° 264° (W) 23:14:26 145.950 - 145.970 MHz USB
KITSAT 1 02 Sep 23:43:37 23:51:42 76° 304° (NW) 23:59:51 435.175 FM
Sapphire 02 Sep 23:54:21 23:58:13 19° 40° (NE) 00:02:03 437.095 MHz 1200 baud AX-25 AFSK
PCSat 03 Sep 00:23:01 00:27:48 30° 47° (NE) 00:32:32 145.825 MHz
Oscar 16 03 Sep 01:04:51 01:07:09 13° 88° (E) 01:09:27 437.025 USB, Beacon 2401.1428
Sapphire 03 Sep 01:36:53 01:42:21 86° 241° (WSW) 01:47:47 437.095 MHz 1200 baud AX-25 AFSK
AO-27 03 Sep 01:39:59 01:41:35 11° 88° (E) 01:43:11 436.795 MHz FM
KITSAT 1 03 Sep 01:42:11 01:48:32 24° 328° (NNW) 01:54:54 435.175 FM
JAS-1B 03 Sep 02:00:28 02:04:55 19° 87° (E) 02:09:02 435.800 - 435.900 CW/SSB
PCSat 03 Sep 02:06:13 02:11:24 46° 247° (WSW) 02:16:32 145.825 MHz
Oscar 19 03 Sep 02:06:29 02:11:31 47° 99° (E) 02:16:30 437.125 CW, 437.150 USB
AO-Echo 03 Sep 02:07:25 02:11:05 22° 94° (E) 02:14:44 ?
SO-50 03 Sep 02:11:59 02:15:20 21° 112° (ESE) 02:18:45 436.795 FM
Gurwin Techsat 1B 03 Sep 02:26:16 02:29:16 15° 89° (E) 02:32:15 435.225 FM
Oscar 10/S400 03 Sep 02:37:36 03:45:40 38° 227° (SW) 08:36:04 145.825 - 145.975 CW/USB, Beacon 145.810 USB
Oscar 16 03 Sep 02:41:54 02:47:08 81° 286° (WNW) 02:52:19 437.025 USB, Beacon 2401.1428
ITAMSAT 1 03 Sep 02:46:40 02:51:42 48° 100° (E) 02:56:43 435.822 SSB
Uribyol 2 03 Sep 02:55:39 03:00:49 63° 102° (ESE) 03:05:58 436.500 FM
TMSAT-1 03 Sep 03:14:16 03:18:56 31° 95° (E) 03:23:34 436.925 FM
AO-27 03 Sep 03:16:35 03:21:48 89° 283° (WNW) 03:27:00 436.795 MHz FM
Sapphire 03 Sep 03:23:00 03:24:54 12° 258° (WSW) 03:26:48 437.095 MHz 1200 baud AX-25 AFSK
OPAL 03 Sep 03:41:29 03:46:10 39° 66° (ENE) 03:50:57 ?
KITSAT 1 03 Sep 03:43:38 03:47:30 14° 358° (N) 03:51:22 435.175 FM
AO-Echo 03 Sep 03:45:38 03:50:01 40° 290° (WNW) 03:54:25 ?
Oscar 19 03 Sep 03:46:28 03:50:33 24° 297° (WNW) 03:54:37 437.125 CW, 437.150 USB
JAS-1B 03 Sep 03:49:49 03:56:24 63° 290° (WNW) 04:02:08 435.800 - 435.900 CW/SSB
SO-50 03 Sep 03:51:13 03:55:34 48° 310° (NW) 04:00:02 436.795 FM
UOSAT-12 03 Sep 03:52:26 03:55:34 18° 110° (ESE) 03:58:44 437.025 FM, 437.400 FM
Gurwin Techsat 1B 03 Sep 04:04:28 04:09:47 72° 287° (WNW) 04:15:03 435.225 FM
Oscar 16 03 Sep 04:23:44 04:25:38 12° 304° (WNW) 04:27:31 437.025 USB, Beacon 2401.1428
ITAMSAT 1 03 Sep 04:26:51 04:30:53 23° 297° (WNW) 04:34:55 435.822 SSB
AO-7 03 Sep 04:31:58 04:39:34 38° 98° (E) 04:47:05 29.400 - 29.500 MHz
Uribyol 2 03 Sep 04:36:16 04:39:49 19° 299° (WNW) 04:43:22 436.500 FM
Uosat F 03 Sep 04:39:03 04:43:36 34° 97° (E) 04:48:09 435.120 FM
TMSAT-1 03 Sep 04:54:04 04:58:52 36° 293° (WNW) 05:03:40 436.925 FM
AO-27 03 Sep 04:58:11 05:00:33 13° 303° (WNW) 05:02:55 436.795 MHz FM
OPAL 03 Sep 05:20:49 05:25:08 28° 263° (W) 05:29:32 ?
UOSAT-12 03 Sep 05:30:42 05:35:16 58° 308° (NW) 05:39:56 437.025 FM, 437.400 FM
STRAND 1 03 Sep 05:32:22 05:36:02 20° 62° (ENE) 05:39:43 ?
JAS-2 03 Sep 05:33:59 05:37:00 15° 91° (E) 05:40:07 435.800 - 435.900 CW/SSB, 435.910 FM
SO-50 03 Sep 05:36:04 05:37:17 11° 332° (NNW) 05:38:31 436.795 FM
KITSAT 1 03 Sep 05:40:37 05:46:38 22° 29° (NNE) 05:52:37 435.175 FM
JAS-1B 03 Sep 05:43:39 05:45:24 11° 314° (NW) 05:47:06 435.800 - 435.900 CW/SSB
Saudisat 1A 03 Sep 05:44:03 05:48:02 32° 46° (NE) 05:51:59 436.775 MHz
Gurwin Techsat 1B 03 Sep 05:47:29 05:48:48 11° 305° (NW) 05:50:07 435.225 FM
Uosat F 03 Sep 06:17:59 06:22:18 30° 294° (WNW) 06:26:36 435.120 FM
AO-7 03 Sep 06:24:36 06:32:32 52° 297° (WNW) 06:40:26 29.400 - 29.500 MHz
Hamsat 03 Sep 06:36:27 06:40:46 58° 100° (E) 06:44:59 145.90 MHz
RS-15 03 Sep 06:50:05 07:00:33 51° 112° (ESE) 07:10:51 29.354 - 29.394 USB, Beacon 29.352 USB
STRAND 1 03 Sep 07:09:50 07:14:49 55° 259° (W) 07:19:50 ?
UOSAT-12 03 Sep 07:14:18 07:16:26 13° 329° (NNW) 07:18:35 437.025 FM, 437.400 FM
JAS-2 03 Sep 07:17:18 07:22:34 72° 286° (WNW) 07:28:19 435.800 - 435.900 CW/SSB, 435.910 FM
Saudisat 1A 03 Sep 07:23:39 07:27:36 33° 244° (WSW) 07:31:32 436.775 MHz
KITSAT 1 03 Sep 07:35:40 07:43:44 66° 53° (NE) 07:51:44 435.175 FM
SO-67 03 Sep 08:06:14 08:09:43 85° 283° (WNW) 08:13:10 435.3500 MHz FM
Hamsat 03 Sep 08:13:48 08:16:14 15° 297° (WNW) 08:18:40 145.90 MHz
AO-7 03 Sep 08:20:01 08:23:26 13° 319° (NW) 08:26:51 29.400 - 29.500 MHz
ISS 03 Sep 09:00:42 09:03:39 30° 138° (SE) 09:06:36 145.800 FM
RS-15 03 Sep 09:02:09 09:12:51 54° 316° (NW) 09:23:32 29.354 - 29.394 USB, Beacon 29.352 USB
JAS-2 03 Sep 09:06:24 09:06:52 10° 304° (NW) 09:07:20 435.800 - 435.900 CW/SSB, 435.910 FM
KITSAT 1 03 Sep 09:31:49 09:38:34 30° 253° (WSW) 09:45:17 435.175 FM
HO-68 03 Sep 09:44:35 09:51:39 58° 102° (ESE) 09:58:41 435.675 MHz FM
UKube-1 03 Sep 10:15:47 10:20:07 63° 102° (ESE) 10:24:25 145.840 MHz, 145.915 MHz
Oscar 11 03 Sep 10:17:56 10:22:09 45° 99° (E) 10:26:20 145.825 FM, Beacon 2401.500 USB
ISS 03 Sep 10:37:06 10:40:18 42° 335° (NNW) 10:43:30 145.800 FM
SO-50 03 Sep 10:41:17 10:45:34 32° 45° (NE) 10:49:53 436.795 FM
FUNcube-1 03 Sep 10:54:00 10:58:24 46° 99° (E) 11:02:50 145.950 - 145.970 MHz USB
MaSat-1 03 Sep 11:06:01 11:06:20 10° 97° (E) 11:06:39 437.345 MHz
RS-15 03 Sep 11:19:49 11:28:27 26° 347° (NNW) 11:37:11 29.354 - 29.394 USB, Beacon 29.352 USB
HO-68 03 Sep 11:32:55 11:38:57 31° 301° (WNW) 11:45:00 435.675 MHz FM
Oscar 19 03 Sep 11:49:37 11:51:08 11° 56° (NE) 11:52:40 437.125 CW, 437.150 USB
UKube-1 03 Sep 11:53:33 11:55:49 14° 299° (WNW) 11:58:04 145.840 MHz, 145.915 MHz
Oscar 11 03 Sep 11:54:59 11:58:00 19° 296° (WNW) 12:01:00 145.825 FM, Beacon 2401.500 USB
ISS 03 Sep 12:15:04 12:17:38 20° 355° (N) 12:20:11 145.800 FM
UOSAT-12 03 Sep 12:19:35 12:23:35 26° 43° (NE) 12:27:33 437.025 FM, 437.400 FM
SO-50 03 Sep 12:21:45 12:26:12 39° 243° (WSW) 12:30:42 436.795 FM
Oscar 16 03 Sep 12:22:18 12:26:16 23° 63° (ENE) 12:30:15 437.025 USB, Beacon 2401.1428
ITAMSAT 1 03 Sep 12:30:26 12:32:21 12° 56° (ENE) 12:34:17 435.822 SSB
FUNcube-1 03 Sep 12:31:11 12:34:29 20° 295° (WNW) 12:37:48 145.950 - 145.970 MHz USB
MaSat-1 03 Sep 12:37:26 12:42:23 79° 115° (ESE) 12:47:34 437.345 MHz
Uribyol 2 03 Sep 12:38:16 12:41:08 15° 59° (ENE) 12:44:01 436.500 FM
JAS-1B 03 Sep 12:43:59 12:51:44 31° 60° (ENE) 12:58:41 435.800 - 435.900 CW/SSB
AO-27 03 Sep 12:58:14 13:02:06 22° 62° (ENE) 13:05:58 436.795 MHz FM
AO-Echo 03 Sep 13:21:19 13:25:46 34° 68° (ENE) 13:30:07 ?
Oscar 19 03 Sep 13:24:25 13:29:35 76° 74° (ENE) 13:34:47 437.125 CW, 437.150 USB
RS-15 03 Sep 13:36:17 13:45:34 30° 23° (NNE) 13:55:02 29.354 - 29.394 USB, Beacon 29.352 USB
AO-7 03 Sep 13:44:53 13:48:58 15° 43° (NE) 13:53:02 29.400 - 29.500 MHz
Gurwin Techsat 1B 03 Sep 13:48:02 13:52:27 28° 65° (ENE) 13:56:54 435.225 FM
ISS 03 Sep 13:52:15 13:55:08 26° 16° (NNE) 13:58:00 145.800 FM
UOSAT-12 03 Sep 13:59:25 14:03:58 48° 242° (WSW) 14:08:27 437.025 FM, 437.400 FM
Oscar 16 03 Sep 14:00:17 14:05:17 50° 260° (W) 14:10:20 437.025 USB, Beacon 2401.1428
ITAMSAT 1 03 Sep 14:05:51 14:11:01 82° 74° (ENE) 14:16:13 435.822 SSB
Uribyol 2 03 Sep 14:14:48 14:19:57 79° 256° (WSW) 14:25:09 436.500 FM
MaSat-1 03 Sep 14:16:27 14:20:00 19° 314° (NW) 14:23:36 437.345 MHz
JAS-1B 03 Sep 14:31:58 14:41:40 75° 257° (WSW) 14:50:12 435.800 - 435.900 CW/SSB
TMSAT-1 03 Sep 14:36:04 14:41:11 53° 71° (ENE) 14:46:20 436.925 FM
AO-27 03 Sep 14:36:12 14:41:14 53° 260° (W) 14:46:19 436.795 MHz FM
AO-Echo 03 Sep 15:00:19 15:04:34 28° 264° (W) 15:08:45 ?
Oscar 19 03 Sep 15:06:57 15:09:30 14° 271° (W) 15:12:05 437.125 CW, 437.150 USB
PCSat 03 Sep 15:07:27 15:11:09 19° 106° (ESE) 15:14:52 145.825 MHz
Gurwin Techsat 1B 03 Sep 15:27:15 15:32:14 41° 262° (W) 15:37:15 435.225 FM
ISS 03 Sep 15:28:48 15:32:09 78° 214° (SW) 15:35:28 145.800 FM
AO-7 03 Sep 15:31:56 15:40:00 58° 64° (ENE) 15:48:05 29.400 - 29.500 MHz
ITAMSAT 1 03 Sep 15:49:01 15:51:09 12° 271° (W) 15:53:17 435.822 SSB
RS-15 03 Sep 15:49:11 16:00:15 72° 52° (NE) 16:11:44 29.354 - 29.394 USB, Beacon 29.352 USB
Uosat F 03 Sep 15:53:21 15:58:13 54° 71° (ENE) 16:03:06 435.120 FM
TMSAT-1 03 Sep 16:17:32 16:21:25 21° 268° (W) 16:25:20 436.925 FM
Sapphire 03 Sep 16:19:36 16:24:58 71° 117° (ESE) 16:30:22 437.095 MHz 1200 baud AX-25 AFSK
JAS-1B 03 Sep 16:27:36 16:33:08 17° 273° (W) 16:38:23 435.800 - 435.900 CW/SSB
